Location: Catacaguana
(10.4120°N, 66.7591°W)
Time: 06:30:12
(UTC+00:00)

SJ-6B - Pass Details

Date: 27 May 2022
Orbit: 507 x 576 km, 97.5° (Epoch: 26 June)

Event Time Altitude Azimuth Distance (km) Brightness Sun altitude
Exits shadow 00:35:53 43° 350° (N) 751 3.7 -25.6°
Drops below altitude 10° 00:38:31 10° 349° (N) 1,769 5.9 -26.2°
Sets 00:40:36 0° 349° (N) 2,647 6.9 -26.6°
